CAPE
1 0 0 0 0 0 0 0 0 0 0 0 0 0 0 0 1 2 1 0 1 2 3 0 0 0 0 0 0 102 137 90 0 0 0 0 0 0 0 0 0 0 0 7 51 62 39
2 0 0 0 0 0 0 0 0 0 0 0 0 0 0 0 1 2 1 0 0 0 0 0 0 0 0 0 0 32 7 0 0 0 0 0 0 0 0 0 0 0 0 0 0 60 3
2 0 0 0 0 0 0 0 0 0 0 0 0 0 0 0 1 1 1 0 0 0 0 0 0 0 0 0 0 54 0 0 0 0 0 0 0 0 0 0 0 0 0 0 0 22 65
2 8 2 0 0 0 0 0 0 0 0 0 0 0 0 0 0 0 0 0 0 0 0 0 0 0 3 0 1 1 1 0 0 0 0 0 0 0 0 0 0 0 0 7 0 26 0
7 1 9 0 0 0 0 0 0 0 0 0 0 0 0 0 0 0 0 0 0 0 0 0 0 6 21 0 1 1 0 0 0 0 0 0 0 0 0 0 0 0 0 0 0 0 0
20 10 1 0 0 0 0 0 0 0 0 0 0 0 0 0 0 0 0 0 0 0 0 0 0 77 60 6 3 2 0 0 9 0 0 0 0 0 0 0 16 1 0 0 0 0 0
30 0 0 7 0 0 0 0 0 0 0 0 0 0 0 0 0 0 0 0 0 0 0 0 0 1 0 0 0 0 0 3 26 24 0 7 18 0 0 1 0 1 0 0 0 0 0
62 35 5 0 0 0 0 0 0 0 0 0 0 0 0 0 0 0 0 0 0 1 43 0 0 0 0 0 2 0 0 0 16 10 74 47 33 0 0 0 0 0 19 25 0 0 17
49 54 5 0 10 0 0 0 0 0 0 0 0 0 0 0 0 0 0 0 0 0 300 5 0 0 0 0 0 0 0 11 9 5 61 103 9 0 1 9 35 45 88 32 12 0 0
49 62 11 0 1 0 0 0 0 0 0 0 0 0 0 0 0 0 0 0 0 0 93 0 0 0 0 0 0 0 0 16 65 66 30 81 7 50 84 63 61 117 1 10 9 48 94
57 60 40 0 0 1 0 0 0 0 0 0 0 0 0 0 0 0 0 0 3 51 0 0 0 0 0 0 0 0 0 5 38 55 17 91 48 65 86 38 4 48 1 10 9 38 49
74 59 53 2 0 0 0 0 0 0 0 0 0 0 0 0 0 0 0 70 91 135 0 0 0 0 0 0 0 0 1 0 6 63 86 68 24 57 47 0 15 22 77 78 77 76 63
71 64 59 13 0 0 0 0 0 0 0 0 0 0 0 0 0 114 14 31 66 5 0 0 0 0 0 0 0 0 7 12 38 119 150 82 53 2 1 59 28 75 68 21 28 18 1
76 76 65 45 0 0 0 0 0 0 0 0 0 0 0 0 0 0 0 13 5 0 0 0 0 0 0 0 0 1 17 25 0 34 128 84 56 0 0 29 45 37 11 0 0 0 3
99 91 71 57 7 0 0 0 0 0 0 0 0 8 0 0 0 0 2 8 0 0 0 0 0 0 0 0 0 0 12 18 7 21 23 49 8 0 0 0 0 16 12 0 10 0 1
121 95 85 51 14 0 2 0 0 0 0 0 0 0 0 0 0 0 20 0 0 0 0 0 0 0 0 0 0 0 7 0 0 0 0 26 8 0 0 0 0 10 0 0 0 0 0
128 110 88 66 17 0 4 0 0 0 0 0 3 0 84 163 107 75 8 0 0 6 0 0 0 0 0 0 0 0 1 0 0 0 0 9 8 0 0 0 0 0 0 0 0 0 0
129 100 68 53 35 0 2 0 0 0 1 1 8 8 158 136 67 39 7 0 0 4 0 0 0 0 0 0 0 0 0 0 0 0 0 0 1 13 0 0 0 0 0 0 0 0 0
163 125 87 63 43 0 3 0 0 0 0 0 14 176 6 0 181 1 0 0 0 0 0 5 1 0 9 25 24 22 14 0 0 0 0 0 0 1 0 0 0 0 0 0 0 0 0
208 158 110 70 55 0 20 0 0 1 0 19 69 215 216 37 23 9 1 0 0 0 0 0 19 63 99 62 15 52 16 0 0 0 0 0 0 0 0 0 0 0 0 0 0 0 0
200 195 122 78 67 3 18 1 0 1 0 0 204 71 8 251 16 0 1 0 0 68 3 9 60 118 129 107 43 40 0 0 0 0 0 0 0 0 0 0 0 0 0 0 0 0 0
198 179 96 83 70 46 36 1 0 1 0 7 178 96 0 241 0 0 0 0 0 30 55 75 151 130 151 169 64 111 8 0 0 0 0 0 0 0 0 0 0 0 0 0 0 0 0
243 196 100 84 80 66 62 1 0 1 0 91 274 0 214 0 0 0 0 0 0 189 16 0 228 154 140 47 0 12 0 0 0 0 0 0 0 0 0 0 0 0 0 0 0 0 0
226 159 101 115 40 8 35 0 0 1 0 324 529 29 549 14 0 0 0 0 36 217 260 0 4 154 0 0 0 0 0 0 0 0 0 0 0 0 0 0 0 0 0 0 0 0 0
101 86 81 37 28 14 11 0 0 0 0 298 487 235 99 1 4 0 0 58 79 45 74 10 0 0 0 0 0 0 0 0 0 0 0 0 0 0 31 0 0 0 0 0 0 0 0
35 56 37 4 16 0 0 0 0 0 0 9 613 29 161 12 0 0 14 90 243 255 66 0 0 0 0 0 4 75 27 0 0 0 0 0 0 0 0 96 49 0 0 0 0 0 0
72 27 26 4 0 0 0 0 0 0 0 41 370 2 393 473 7 70 47 64 147 188 209 0 0 0 0 0 27 294 31 0 0 0 0 0 0 0 0 6 0 0 0 0 0 0 0
7 1 0 1 1 0 0 0 0 0 0 19 136 65 722 361 117 110 13 6 0 214 299 0 0 0 0 106 24 23 126 0 0 0 0 0 0 0 1 9 0 0 0 0 0 0 0
0 0 0 0 0 0 0 0 0 0 0 0 243 18 137 374 89 0 0 0 2 21 41 0 155 3 4 8 0 0 2 0 0 0 0 0 0 0 0 0 0 0 0 0 0 0 0
CIN
-5 0 0 0 0 0 0 0 0 0 0 0 0 0 0 0 0 0 -1 0 -1 0 0 0 0 0 0 0 0 -219 -642 -731 0 0 0 0 0 0 0 0 0 0 0 -12 -9 -50 -29
-3 0 0 0 0 0 0 0 0 0 0 0 0 0 0 0 0 0 0 0 0 0 0 0 0 0 0 0 0 -286 -385 0 0 0 0 0 0 0 0 0 0 0 0 0 0 -32 -78
0 0 0 0 0 0 0 0 0 0 0 0 0 0 0 0 0 0 0 0 0 0 0 0 0 0 0 0 0 -244 -25 0 0 0 0 0 0 0 0 0 0 0 0 0 0 -40 -14
0 -2 -35 0 0 0 0 0 0 0 0 0 0 0 0 0 0 0 0 0 0 0 0 0 0 0 -286 0 -246 -302 -205 -37 0 0 0 0 0 0 0 0 0 0 0 -1 0 -27 0
-1 0 -20 -8 0 0 0 0 0 0 0 0 0 0 0 0 0 0 0 0 0 0 0 0 0 -285 -212 0 -92 -111 0 0 0 0 0 0 0 0 0 0 0 0 0 0 0 0 0
0 -1 0 -3 0 0 0 0 0 0 0 0 0 0 0 0 0 0 0 0 0 0 0 0 0 -329 -200 -165 -53 -13 0 0 -39 0 0 0 0 0 0 0 -1 0 0 0 0 0 0
0 0 0 0 0 0 0 0 0 0 0 0 0 0 0 0 0 0 0 0 0 0 0 0 0 -104 0 -197 0 0 0 -14 -61 -38 0 -64 -14 0 0 -1 0 -10 0 0 0 0 0
0 0 -5 0 0 0 0 0 0 0 0 0 0 0 0 0 0 0 0 0 0 -34 -45 0 0 0 0 0 -161 0 0 -5 -37 -15 -26 -28 -2 0 0 0 -22 0 -1 -7 0 0 -34
0 -1 -3 0 0 0 0 0 0 0 0 0 0 0 0 0 0 0 0 0 0 0 -28 -197 -98 0 0 0 0 0 0 -49 -29 -30 -21 -2 -13 0 -1 -31 -21 -17 -3 -24 -11 0 0
0 -1 -2 0 -1 0 0 0 0 0 0 0 0 0 0 0 0 0 0 0 0 0 -31 0 -30 0 0 0 -41 0 0 -51 -41 -7 -8 -21 -132 -64 -24 -28 -32 -3 -15 -55 -45 -12 0
0 -1 -1 0 0 -1 0 0 0 0 0 0 0 0 0 0 0 0 0 0 -66 -60 0 0 0 0 0 0 0 0 0 -64 -20 -44 -73 -46 -46 -32 -10 -54 -57 -44 -20 -60 -48 -11 -17
0 0 0 -2 0 -1 0 0 0 0 0 0 0 0 0 0 0 0 0 -85 -85 -4 0 0 0 0 0 0 0 0 -21 0 -97 -57 -35 -56 -140 -68 -66 -16 -108 -151 -78 -52 -46 -26 -7
0 0 0 -1 0 0 0 0 0 0 0 0 0 0 0 0 0 -65 -73 -27 -6 0 0 0 0 0 0 0 0 0 -35 -31 -9 -6 -8 -36 -54 -67 -5 -48 -111 -68 -32 -8 -13 -17 -20
0 0 0 0 0 0 0 0 0 0 0 0 0 0 0 0 0 0 0 -10 0 0 0 0 0 0 0 0 0 -51 -40 -21 0 -40 -1 0 -11 0 0 -58 -19 -46 -35 0 0 0 -4
0 0 0 -1 -4 0 0 0 0 0 0 0 0 0 0 0 0 0 -1 0 0 0 0 0 0 0 0 0 0 0 -38 -14 -49 -51 0 -7 -23 0 0 0 0 -90 -41 0 -70 -1 -12
0 0 0 -1 -3 0 0 0 0 0 0 0 0 0 0 0 0 0 -6 0 0 0 0 0 0 0 0 0 0 0 -56 0 0 0 0 -46 -10 0 0 0 0 -27 0 0 0 0 0
0 0 0 0 -3 0 0 0 0 0 0 0 0 0 -20 -58 -41 -7 0 0 0 -17 0 0 0 0 0 0 0 0 -24 0 0 0 0 -65 -15 0 0 0 0 0 0 0 0 0 0
0 0 0 -1 -2 0 0 0 0 0 0 0 0 0 -75 -85 -1 -1 -24 0 0 -9 0 0 0 0 0 0 0 0 0 0 0 0 0 0 -19 -16 0 0 0 0 0 0 0 0 0
0 0 0 0 -2 0 0 0 0 0 0 0 0 -34 -2 0 -6 0 0 0 0 0 0 -93 -16 0 -90 -69 -54 -83 -105 0 0 0 0 0 0 -1 0 0 0 0 0 0 0 0 0
0 0 0 0 0 0 0 -1 0 0 0 -11 -1 -6 -12 -48 -7 -4 -19 0 0 -14 0 -3 -107 -80 -62 -63 -127 -82 -110 0 0 0 0 0 0 0 0 0 0 0 0 0 0 0 0
0 0 0 0 0 -1 0 0 0 0 0 0 0 0 0 -5 -3 0 -4 0 0 -11 -12 -99 -63 -28 -27 -53 -67 -63 -1 0 0 0 0 0 0 0 0 0 0 0 0 0 0 0 0
0 0 0 -1 0 0 0 0 0 0 0 0 0 -4 0 -11 0 0 0 0 0 -37 -42 -32 -13 -44 -43 -9 -14 -23 -63 0 0 0 0 0 0 0 0 0 0 0 0 0 0 0 0
0 0 0 -1 -3 0 0 -1 0 0 0 -8 -37 -20 -1 -2 -3 0 0 0 0 -17 -47 -7 -23 -43 -66 -68 0 -44 0 0 0 0 0 0 0 0 0 0 0 0 0 0 0 0 0
0 0 0 0 0 -7 0 0 0 0 0 -2 -19 -48 -7 -22 0 0 0 0 -33 -17 -32 0 -62 -54 0 0 0 0 0 0 0 0 0 0 0 0 0 0 0 0 0 0 0 0 0
-2 -1 0 0 -3 -7 -4 0 0 0 0 -50 -98 -57 -71 0 -87 0 0 -36 -101 -125 -138 -133 0 0 0 0 0 0 0 0 0 0 0 0 0 0 -1 0 0 0 0 0 0 0 0
-6 -2 0 -11 -1 0 0 0 0 0 0 0 -73 -301 -77 -15 0 -11 -49 -43 -39 -49 -131 0 0 0 0 0 -111 -58 -44 0 0 0 0 0 0 0 0 -3 -12 0 0 0 0 0 0
-1 0 0 -1 0 0 0 0 0 0 0 -58 -85 -131 -75 -92 -226 -147 -44 -62 -71 -76 -100 0 0 0 0 0 -131 -31 -52 0 0 0 0 0 0 0 0 0 0 0 0 0 0 0 0
0 -1 0 0 0 0 0 0 0 0 0 -50 -184 -298 -90 -143 -174 -193 -174 -91 0 -76 -68 0 0 0 0 -50 -66 -16 -6 0 0 0 0 0 0 0 0 0 0 0 0 0 0 0 0
0 0 0 0 0 0 0 0 0 0 0 0 -106 -333 -288 -141 -171 0 0 0 -23 -9 -176 0 -98 -5 -25 -4 0 0 0 0 0 0 0 0 0 0 0 0 0 0 0 0 0 0 0
Wind_Speed
19 18 16 15 14 12 13 12 11 10 10 9 11 9 11 13 14 13 11 12 12 11 11 8 9 8 6 8 8 5 6 9 14 13 13 11 10 10 11 10 7 10 4 2 8 9 4
19 18 18 17 16 14 14 13 11 10 10 9 12 9 10 12 12 11 10 10 9 9 9 7 7 7 6 9 3 7 7 10 8 13 12 11 6 9 4 4 9 5 9 9 4 8 8
14 19 19 18 16 15 14 13 12 10 10 9 12 10 10 11 12 11 9 9 7 8 6 7 5 5 7 13 1 6 5 4 8 12 9 11 8 8 1 3 3 9 6 7 7 10 6
15 18 20 18 17 16 15 13 12 10 11 9 11 10 10 10 11 9 9 6 7 7 4 5 5 3 9 3 5 10 12 7 8 11 9 2 10 6 4 2 4 5 9 7 7 12 4
16 14 21 19 18 17 15 14 13 11 11 9 11 10 10 10 10 8 7 4 8 4 2 2 6 4 8 4 8 2 6 3 6 6 6 3 10 3 5 10 7 6 7 9 8 2 6
18 16 15 20 19 17 16 15 13 12 11 9 10 10 9 9 8 6 3 4 4 5 4 5 5 5 8 1 4 5 3 4 4 10 7 3 5 7 7 10 8 7 12 10 11 6 12
20 19 15 20 20 19 18 16 13 12 11 10 9 9 9 8 6 4 4 5 7 5 6 7 1 5 5 11 2 4 0 5 3 3 6 6 8 9 14 5 5 3 7 13 8 4 7
18 18 15 15 21 20 19 17 14 12 11 9 8 7 9 6 3 5 4 7 2 5 7 17 12 9 12 6 4 3 3 5 4 2 4 7 4 4 5 3 5 6 7 7 6 5 5
19 13 10 11 20 21 20 18 14 12 11 9 7 6 7 3 7 5 9 13 4 10 7 4 7 6 5 7 3 4 3 2 2 4 1 8 6 3 5 7 8 5 5 10 6 7 2
20 17 13 10 15 21 20 18 15 13 11 10 6 6 4 10 5 3 8 10 10 4 6 8 7 6 6 4 4 2 1 2 2 2 1 4 3 5 7 6 4 6 3 6 11 13 8
20 17 14 12 12 20 20 18 16 14 11 9 6 6 9 14 4 6 4 2 3 4 6 10 7 4 5 6 4 4 3 3 6 5 4 4 6 6 5 3 2 5 3 5 5 5 5
20 19 18 15 12 19 20 19 16 14 12 10 8 8 11 6 4 8 8 2 3 7 6 8 8 10 10 4 3 2 2 4 2 2 2 6 3 2 4 5 3 12 8 6 3 4 8
20 20 19 17 12 20 21 20 18 15 13 11 10 10 12 7 4 3 2 4 6 9 3 8 10 12 12 7 6 5 6 9 7 10 9 7 4 4 2 9 6 7 7 4 6 6 5
21 20 20 18 14 17 22 21 18 15 14 11 10 10 9 6 3 4 3 6 11 4 7 3 8 13 12 9 4 4 8 9 4 7 9 9 8 4 1 4 2 3 4 4 5 3 0
21 19 19 19 15 12 24 22 19 17 14 11 9 6 5 7 12 2 5 10 11 6 6 10 10 15 8 7 4 7 5 6 3 4 7 7 5 5 3 1 4 5 5 4 3 1 3
21 20 19 18 17 12 22 23 21 20 18 17 7 6 8 11 14 6 5 13 9 3 4 9 12 11 13 12 10 9 9 4 4 2 4 4 5 2 5 1 7 4 9 4 3 4 5
21 20 20 19 19 11 19 24 23 22 20 21 7 6 8 12 8 6 10 13 7 7 6 10 11 7 10 9 8 10 9 4 4 4 1 5 3 6 3 7 6 6 5 1 1 3 3
22 22 21 20 20 16 22 25 26 24 19 10 7 8 8 11 10 9 12 12 3 6 5 4 5 7 12 10 8 9 11 2 3 4 6 2 1 5 7 4 1 3 5 9 5 6 1
23 22 22 20 19 16 16 27 27 26 25 9 9 4 2 6 13 11 8 12 5 8 6 8 8 5 5 9 5 5 6 2 3 5 6 6 4 5 5 6 5 7 9 5 4 1 7
23 23 20 20 20 16 18 27 29 30 30 7 9 8 6 5 5 16 16 15 9 4 4 3 5 4 8 6 0 7 7 3 2 2 2 4 4 7 9 1 1 6 11 12 11 5 4
23 23 21 21 20 17 17 25 27 28 29 5 7 8 11 14 13 12 17 13 14 7 2 7 5 8 8 6 6 6 5 5 3 5 3 4 6 4 1 1 3 4 7 13 15 13 8
23 23 22 23 20 19 19 24 28 26 20 4 8 6 6 15 15 14 15 14 17 6 6 8 7 9 7 6 9 10 10 7 5 7 5 3 3 3 4 2 1 6 8 11 15 16 15
24 22 23 24 21 22 25 27 28 25 18 7 3 1 10 6 12 13 12 14 12 10 2 2 10 9 6 4 5 7 6 7 5 7 7 5 6 4 2 2 2 6 16 18 13 13 14
25 23 24 25 21 19 27 27 27 27 24 5 3 3 6 8 10 15 13 10 11 8 8 4 4 4 6 16 16 14 14 12 9 8 2 6 5 2 1 2 4 2 1 3 13 16 14
25 24 25 23 20 24 27 26 27 26 32 4 1 3 5 4 9 12 13 8 10 5 5 6 4 3 16 4 4 4 2 3 4 7 4 1 5 3 3 4 6 11 4 3 4 7 6
24 23 26 23 24 26 25 27 26 26 28 5 2 3 2 9 10 10 13 10 8 6 5 4 6 9 2 2 2 4 5 4 5 5 3 5 4 1 3 3 4 3 4 1 2 6 3
22 21 26 24 25 25 23 24 27 25 23 6 2 1 2 5 4 7 13 12 6 5 6 6 9 3 2 2 3 3 4 1 6 5 4 2 2 4 3 4 6 1 3 3 3 4 1
28 24 26 24 24 25 26 25 24 23 23 6 2 3 2 4 5 0 2 6 6 6 7 9 7 2 2 2 3 3 2 4 3 2 5 6 6 4 3 3 5 6 6 4 4 1 2
22 22 21 22 21 23 23 24 24 22 22 11 3 2 5 7 5 5 7 6 4 2 7 10 2 7 6 5 1 3 3 0 1 3 3 4 3 1 7 2 4 7 4 1 2 4 2
Wind_Direction
227 227 228 225 224 227 236 243 252 260 267 275 282 293 298 301 300 300 292 289 277 289 290 299 303 317 281 239 256 90 106 122 159 191 208 207 208 212 208 211 179 230 155 215 130 131 183
226 221 223 223 221 220 229 240 247 255 265 274 282 291 292 296 294 289 284 278 281 285 287 295 303 299 259 251 61 160 123 148 182 197 206 209 224 221 274 252 215 173 161 192 177 161 135
292 220 222 223 220 219 222 231 238 246 258 269 281 288 291 294 293 290 285 283 290 282 288 292 293 273 252 260 42 171 193 256 212 207 211 213 218 205 304 173 132 146 127 152 190 178 163
283 257 221 222 218 215 216 222 233 239 254 261 273 284 291 291 292 293 286 293 287 273 288 280 267 258 263 221 277 259 248 250 218 210 244 192 218 250 255 173 119 171 162 167 146 169 153
263 279 238 222 218 216 215 221 225 233 245 255 271 282 289 294 293 292 278 294 268 261 259 269 217 253 260 290 233 263 195 242 154 174 208 139 181 173 160 181 165 183 175 138 132 242 149
257 260 268 225 218 214 213 218 219 229 241 251 269 282 286 294 290 272 257 266 205 187 198 224 250 250 240 146 338 313 188 226 203 139 133 158 195 200 188 203 195 170 160 163 147 154 189
251 249 258 246 215 215 213 217 216 219 234 248 264 283 290 290 273 219 154 216 205 178 221 244 82 288 296 325 222 198 233 188 185 231 224 184 207 207 187 223 64 151 171 165 133 131 148
254 241 238 252 218 214 213 213 212 212 227 238 256 279 289 278 215 171 255 250 340 9 263 227 248 269 274 289 277 203 244 248 266 256 196 196 149 92 121 135 131 167 187 134 126 139 227
240 235 245 255 233 211 211 210 207 208 221 233 246 272 277 193 137 176 234 242 120 1 260 186 209 243 267 200 246 196 243 194 281 270 286 242 79 116 154 143 138 134 151 160 171 134 91
235 234 229 252 242 215 208 206 202 203 214 223 227 244 207 136 171 187 232 241 252 248 259 162 196 215 185 235 208 5 37 281 141 208 140 74 96 159 149 136 275 135 83 137 150 191 192
232 230 233 233 248 220 202 201 194 195 205 214 202 221 182 197 359 216 5 231 164 214 235 155 162 88 146 216 121 134 36 196 210 163 250 103 146 158 151 59 298 103 160 130 184 217 218
227 228 231 229 236 226 201 195 188 191 193 186 216 215 159 201 253 266 314 36 206 233 225 159 157 170 169 176 140 124 159 86 67 125 138 104 90 12 70 68 187 137 142 123 163 239 242
223 227 227 225 231 221 202 194 187 187 183 178 207 203 182 169 197 350 211 194 210 238 142 159 170 177 185 164 157 202 186 171 192 169 166 156 101 110 177 129 150 215 191 216 217 216 252
220 223 228 225 222 224 206 193 183 178 169 180 200 186 218 215 189 11 163 199 232 206 195 131 166 175 187 169 162 159 177 180 194 250 173 184 167 177 135 293 192 158 263 238 263 230 298
219 222 224 225 215 231 208 196 177 164 155 176 169 193 221 212 217 303 175 207 216 221 179 165 160 176 167 163 205 191 214 184 172 232 210 183 122 127 38 156 294 133 219 34 123 54 270
217 223 224 223 212 227 210 189 170 159 162 171 179 193 216 165 163 203 196 226 231 243 164 183 177 201 184 179 187 207 193 151 161 235 288 147 141 175 128 162 64 287 128 179 215 222 234
214 220 224 221 213 222 211 189 164 157 165 185 192 194 118 152 156 194 208 216 228 228 232 184 177 163 194 175 207 196 188 143 208 148 247 160 226 149 187 212 189 155 192 207 287 282 273
214 217 223 219 211 207 219 189 160 155 162 165 187 204 145 180 187 189 213 214 200 212 204 175 190 161 190 181 177 194 199 255 157 182 185 103 154 182 197 122 303 278 229 209 235 174 212
214 216 219 217 195 202 222 176 156 154 170 170 181 143 111 259 194 188 185 216 236 218 188 175 171 177 181 171 174 196 186 85 192 201 168 167 192 176 176 180 181 225 195 205 131 123 205
218 215 215 218 193 196 208 178 160 168 190 218 180 164 138 206 231 196 186 200 210 245 153 164 141 136 146 159 121 170 164 139 141 142 53 189 187 243 240 294 325 197 199 201 208 202 213
218 215 209 212 187 198 214 175 165 177 191 212 218 185 162 181 196 206 189 187 201 185 198 196 155 192 168 143 161 169 162 146 143 152 146 237 231 211 187 72 246 263 225 203 216 234 221
218 214 212 199 179 185 207 174 176 181 173 228 185 170 175 162 174 194 183 202 200 154 187 185 194 166 178 168 198 185 172 192 177 172 179 170 191 187 217 214 284 267 243 234 232 247 251
215 209 207 190 176 183 195 181 179 170 171 197 172 100 169 162 174 185 184 184 197 154 103 1 160 143 144 88 64 53 80 84 122 166 163 172 158 164 231 3 273 274 237 224 224 225 239
213 206 205 192 179 190 191 179 177 175 199 223 182 149 152 160 193 193 173 184 180 191 139 109 132 121 109 122 108 88 82 80 83 70 44 140 129 71 132 222 221 2 87 312 252 256 245
210 203 191 181 191 201 182 174 178 183 202 264 182 198 127 128 190 185 178 160 130 98 92 112 56 68 146 145 111 116 70 60 69 51 59 273 135 117 179 219 317 278 190 224 213 289 254
208 193 182 194 186 172 172 177 182 191 200 231 280 310 139 124 214 161 162 183 152 149 127 84 80 121 127 81 119 156 184 191 170 146 72 84 62 216 148 216 243 45 81 167 225 268 12
200 189 181 168 167 171 174 180 187 189 180 210 206 327 238 108 144 166 178 180 139 142 106 128 153 186 304 103 100 148 179 319 177 184 176 109 33 207 169 239 279 319 127 163 236 21 8
157 153 155 160 168 172 179 183 183 181 166 200 95 329 284 88 103 81 119 153 141 176 149 138 146 180 122 125 136 171 162 182 200 133 181 179 164 176 130 201 271 152 143 218 20 56 348
144 151 159 165 168 176 177 178 178 174 168 194 122 257 57 67 77 73 75 36 359 60 124 175 16 148 161 110 158 110 139 125 117 197 196 222 236 210 215 227 101 196 287 359 335 346 5